Time,TemperatureF,DewpointF,PressureIn,WindDirection,WindDirectionDegrees,WindSpeedMPH,WindSpeedGustMPH,Humidity,HourlyPrecipIn,Conditions,Clouds,dailyrainin,SolarRadiationWatts/m^2,SoftwareType,DateUTC
2013-05-12 00:01:00,49.0,48.0,30.09,NW,316,3.0,5.0,96,-99.99,,,-99.99,0.000000,,2013-05-12 07:01:00,
2013-05-12 00:11:00,49.0,48.0,30.09,NNW,327,1.0,3.0,97,-99.99,,,-99.99,0.000000,,2013-05-12 07:11:00,
2013-05-12 00:21:00,47.0,46.0,30.09,East,86,1.0,2.0,97,-99.99,,,-99.99,0.000000,,2013-05-12 07:21:00,
2013-05-12 00:32:00,48.0,47.0,30.09,East,98,1.0,2.0,97,-99.99,,,-99.99,0.000000,,2013-05-12 07:32:00,
2013-05-12 00:42:00,48.0,47.0,30.09,East,87,2.0,2.0,97,-99.99,,,-99.99,0.000000,,2013-05-12 07:42:00,
2013-05-12 00:52:00,48.0,47.0,30.09,ENE,77,1.0,2.0,97,-99.99,,,-99.99,0.000000,,2013-05-12 07:52:00,
2013-05-12 01:02:00,47.0,46.0,30.09,East,89,2.0,2.0,97,-99.99,,,-99.99,0.000000,,2013-05-12 08:02:00,
2013-05-12 01:11:00,47.0,46.0,30.09,East,93,1.0,3.0,97,-99.99,,,-99.99,0.000000,,2013-05-12 08:11:00,
2013-05-12 01:21:00,48.0,47.0,30.09,East,96,3.0,3.0,97,-99.99,,,-99.99,0.000000,,2013-05-12 08:21:00,
2013-05-12 01:32:00,48.0,47.0,30.08,East,98,3.0,4.0,97,-99.99,,,-99.99,0.000000,,2013-05-12 08:32:00,
2013-05-12 01:41:00,49.0,48.0,30.08,ESE,118,2.0,3.0,97,-99.99,,,-99.99,0.000000,,2013-05-12 08:41:00,
2013-05-12 01:52:00,50.0,49.0,30.08,South,191,2.0,4.0,97,-99.99,,,-99.99,0.000000,,2013-05-12 08:52:00,
2013-05-12 02:01:00,48.0,47.0,30.08,SW,225,3.0,4.0,97,-99.99,,,-99.99,0.000000,,2013-05-12 09:01:00,
2013-05-12 02:11:00,48.0,47.0,30.08,SW,234,2.0,4.0,97,-99.99,,,-99.99,0.000000,,2013-05-12 09:11:00,
2013-05-12 02:21:00,48.0,47.0,30.08,SW,218,2.0,5.0,97,-99.99,,,-99.99,0.000000,,2013-05-12 09:21:00,
2013-05-12 02:32:00,46.0,45.0,30.08,SW,219,3.0,4.0,97,-99.99,,,-99.99,0.000000,,2013-05-12 09:32:00,
2013-05-12 02:42:00,47.0,46.0,30.08,SSW,208,3.0,4.0,97,-99.99,,,-99.99,0.000000,,2013-05-12 09:42:00,
2013-05-12 02:52:00,47.0,46.0,30.08,SSW,207,3.0,4.0,97,-99.99,,,-99.99,0.000000,,2013-05-12 09:52:00,
2013-05-12 03:00:00,45.0,44.0,30.08,South,171,2.0,3.0,98,-99.99,,,-99.99,0.000000,,2013-05-12 10:00:00,
2013-05-12 03:03:00,47.0,46.0,30.08,SSW,196,2.0,3.0,97,-99.99,,,-99.99,0.000000,,2013-05-12 10:03:00,
2013-05-12 03:12:00,47.0,46.0,30.08,SSW,207,2.0,3.0,97,-99.99,,,-99.99,0.000000,,2013-05-12 10:12:00,
2013-05-12 03:22:00,47.0,46.0,30.08,SSE,157,2.0,2.0,97,-99.99,,,-99.99,0.000000,,2013-05-12 10:22:00,
2013-05-12 03:33:00,46.0,45.0,30.08,SE,146,2.0,3.0,97,-99.99,,,-99.99,0.000000,,2013-05-12 10:33:00,
2013-05-12 03:42:00,45.0,44.0,30.08,South,171,2.0,3.0,98,-99.99,,,-99.99,0.000000,,2013-05-12 10:42:00,
2013-05-12 03:52:00,45.0,44.0,30.08,South,171,2.0,3.0,98,-99.99,,,-99.99,0.000000,,2013-05-12 10:52:00,
2013-05-12 04:51:00,50.0,49.0,30.08,WNW,291,2.0,5.0,97,-99.99,,,-99.99,0.000000,,2013-05-12 11:51:00,
2013-05-12 05:01:00,51.0,50.0,30.08,WNW,294,4.0,7.0,97,-99.99,,,-99.99,0.000000,,2013-05-12 12:01:00,
2013-05-12 05:11:00,52.0,51.0,30.08,WNW,297,8.0,11.0,97,-99.99,,,-99.99,0.000000,,2013-05-12 12:11:00,
2013-05-12 05:21:00,52.0,51.0,30.08,WNW,302,10.0,13.0,97,-99.99,,,-99.99,0.000000,,2013-05-12 12:21:00,
2013-05-12 05:32:00,51.0,50.0,30.08,WNW,300,9.0,13.0,97,-99.99,,,-99.99,0.000000,,2013-05-12 12:32:00,
2013-05-12 05:41:00,51.0,50.0,30.08,WNW,299,8.0,13.0,97,-99.99,,,-99.99,0.000000,,2013-05-12 12:41:00,
2013-05-12 05:51:00,50.0,49.0,30.08,WNW,294,5.0,9.0,97,-99.99,,,-99.99,0.000000,,2013-05-12 12:51:00,
2013-05-12 06:01:00,50.0,49.0,30.08,WNW,293,4.0,6.0,97,-99.99,,,-99.99,0.000000,,2013-05-12 13:01:00,
2013-05-12 06:11:00,50.0,49.0,30.08,West,266,1.0,3.0,97,-99.99,,,-99.99,0.000000,,2013-05-12 13:11:00,
2013-05-12 06:21:00,50.0,49.0,30.08,West,260,1.0,3.0,97,-99.99,,,-99.99,0.000000,,2013-05-12 13:21:00,
2013-05-12 06:31:00,50.0,49.0,30.08,WSW,256,2.0,5.0,97,-99.99,,,-99.99,0.000000,,2013-05-12 13:31:00,
2013-05-12 06:41:00,50.0,49.0,30.08,West,259,2.0,5.0,97,-99.99,,,-99.99,0.000000,,2013-05-12 13:41:00,
2013-05-12 06:52:00,50.0,49.0,30.08,WSW,253,1.0,3.0,97,-99.99,,,-99.99,1.000000,,2013-05-12 13:52:00,
2013-05-12 07:01:00,50.0,49.0,30.09,WSW,253,1.0,2.0,97,-99.99,,,-99.99,5.000000,,2013-05-12 14:01:00,
2013-05-12 07:11:00,50.0,49.0,30.09,West,276,1.0,3.0,97,-99.99,,,-99.99,10.000000,,2013-05-12 14:11:00,
2013-05-12 07:21:00,50.0,49.0,30.09,WNW,293,3.0,4.0,97,-99.99,,,-99.99,15.000000,,2013-05-12 14:21:00,
2013-05-12 07:31:00,50.0,49.0,30.10,WNW,285,3.0,4.0,97,-99.99,,,-99.99,23.000000,,2013-05-12 14:31:00,
2013-05-12 07:42:00,50.0,49.0,30.10,West,272,1.0,3.0,97,-99.99,,,-99.99,39.000000,,2013-05-12 14:42:00,
2013-05-12 07:52:00,51.0,50.0,30.10,South,182,0.0,1.0,97,-99.99,,,-99.99,51.000000,,2013-05-12 14:52:00,
2013-05-12 08:01:00,51.0,50.0,30.10,West,264,2.0,5.0,97,-99.99,,,-99.99,57.000000,,2013-05-12 15:01:00,
2013-05-12 08:11:00,50.0,49.0,30.11,West,265,4.0,5.0,97,-99.99,,,-99.99,73.000000,,2013-05-12 15:11:00,
2013-05-12 08:21:00,50.0,49.0,30.11,West,259,6.0,8.0,97,-99.99,,,-99.99,87.000000,,2013-05-12 15:21:00,
2013-05-12 08:33:00,49.0,48.0,30.11,West,267,5.0,7.0,97,-99.99,,,-99.99,102.000000,,2013-05-12 15:33:00,
2013-05-12 08:42:00,49.0,48.0,30.12,West,280,6.0,8.0,97,-99.99,,,-99.99,119.000000,,2013-05-12 15:42:00,
2013-05-12 08:52:00,50.0,49.0,30.12,WNW,290,6.0,10.0,97,-99.99,,,-99.99,126.000000,,2013-05-12 15:52:00,
2013-05-12 09:02:00,50.0,49.0,30.13,WNW,298,7.0,10.0,97,-99.99,,,-99.99,133.000000,,2013-05-12 16:02:00,
2013-05-12 09:12:00,50.0,49.0,30.13,NW,311,8.0,11.0,97,-99.99,,,-99.99,144.000000,,2013-05-12 16:12:00,
2013-05-12 09:23:00,51.0,50.0,30.13,NW,309,9.0,13.0,97,-99.99,,,-99.99,167.000000,,2013-05-12 16:23:00,
2013-05-12 09:32:00,52.0,51.0,30.13,NW,310,8.0,12.0,97,-99.99,,,-99.99,175.000000,,2013-05-12 16:32:00,
2013-05-12 09:42:00,52.0,51.0,30.13,WNW,302,12.0,17.0,97,-99.99,,,-99.99,190.000000,,2013-05-12 16:42:00,
2013-05-12 09:52:00,52.0,51.0,30.13,NW,308,10.0,14.0,97,-99.99,,,-99.99,259.000000,,2013-05-12 16:52:00,
2013-05-12 10:01:00,52.0,51.0,30.14,NW,310,10.0,13.0,97,-99.99,,,-99.99,276.000000,,2013-05-12 17:01:00,
2013-05-12 10:11:00,52.0,51.0,30.13,NW,314,11.0,12.0,97,-99.99,,,-99.99,282.000000,,2013-05-12 17:11:00,
2013-05-12 10:22:00,52.0,51.0,30.14,NW,307,9.0,11.0,97,-99.99,,,-99.99,300.000000,,2013-05-12 17:22:00,
2013-05-12 10:32:00,52.0,51.0,30.14,WNW,302,9.0,11.0,97,-99.99,,,-99.99,292.000000,,2013-05-12 17:32:00,
2013-05-12 10:42:00,52.0,51.0,30.14,NW,307,10.0,13.0,97,-99.99,,,-99.99,301.000000,,2013-05-12 17:42:00,
2013-05-12 10:52:00,52.0,51.0,30.14,NW,311,10.0,16.0,97,-99.99,,,-99.99,344.000000,,2013-05-12 17:52:00,
2013-05-12 11:01:00,52.0,51.0,30.14,NW,325,12.0,15.0,97,-99.99,,,-99.99,336.000000,,2013-05-12 18:01:00,
2013-05-12 11:12:00,52.0,51.0,30.14,NW,324,12.0,15.0,97,-99.99,,,-99.99,310.000000,,2013-05-12 18:12:00,
2013-05-12 11:22:00,52.0,51.0,30.14,NW,325,10.0,13.0,97,-99.99,,,-99.99,300.000000,,2013-05-12 18:22:00,
2013-05-12 11:31:00,52.0,51.0,30.15,NW,320,9.0,12.0,97,-99.99,,,-99.99,294.000000,,2013-05-12 18:31:00,
2013-05-12 11:41:00,53.0,52.0,30.14,NW,314,10.0,15.0,97,-99.99,,,-99.99,346.000000,,2013-05-12 18:41:00,
2013-05-12 11:51:00,53.0,52.0,30.15,NW,326,10.0,14.0,97,-99.99,,,-99.99,417.000000,,2013-05-12 18:51:00,
2013-05-12 12:01:00,54.0,53.0,30.15,NW,316,8.0,11.0,97,-99.99,,,-99.99,433.000000,,2013-05-12 19:01:00,
2013-05-12 12:11:00,53.0,52.0,30.15,NW,319,9.0,12.0,97,-99.99,,,-99.99,455.000000,,2013-05-12 19:11:00,
2013-05-12 12:21:00,54.0,53.0,30.15,NW,315,10.0,14.0,97,-99.99,,,-99.99,476.000000,,2013-05-12 19:21:00,
2013-05-12 12:32:00,54.0,53.0,30.15,NW,318,12.0,14.0,97,-99.99,,,-99.99,520.000000,,2013-05-12 19:32:00,
2013-05-12 12:42:00,54.0,53.0,30.15,NW,309,12.0,16.0,96,-99.99,,,-99.99,461.000000,,2013-05-12 19:42:00,
2013-05-12 12:52:00,54.0,53.0,30.15,NW,316,12.0,15.0,96,-99.99,,,-99.99,466.000000,,2013-05-12 19:52:00,
2013-05-12 13:02:00,54.0,53.0,30.16,NW,311,11.0,15.0,95,-99.99,,,-99.99,411.000000,,2013-05-12 20:02:00,
2013-05-12 13:11:00,54.0,53.0,30.15,NW,310,12.0,15.0,95,-99.99,,,-99.99,491.000000,,2013-05-12 20:11:00,
2013-05-12 13:21:00,54.0,53.0,30.15,NW,309,11.0,14.0,94,-99.99,,,-99.99,501.000000,,2013-05-12 20:21:00,
2013-05-12 13:32:00,54.0,52.0,30.15,NW,309,10.0,14.0,94,-99.99,,,-99.99,542.000000,,2013-05-12 20:32:00,
2013-05-12 13:42:00,54.0,52.0,30.15,NW,311,10.0,13.0,93,-99.99,,,-99.99,595.000000,,2013-05-12 20:42:00,
2013-05-12 13:51:00,55.0,53.0,30.15,NW,309,10.0,13.0,93,-99.99,,,-99.99,628.000000,,2013-05-12 20:51:00,
2013-05-12 14:01:00,55.0,53.0,30.14,NW,310,11.0,15.0,91,-99.99,,,-99.99,654.000000,,2013-05-12 21:01:00,
2013-05-12 14:11:00,55.0,52.0,30.14,NW,311,11.0,14.0,90,-99.99,,,-99.99,676.000000,,2013-05-12 21:11:00,
2013-05-12 14:21:00,55.0,52.0,30.14,NW,310,13.0,16.0,90,-99.99,,,-99.99,743.000000,,2013-05-12 21:21:00,
2013-05-12 14:30:00,54.0,51.0,30.13,WNW,301,10.0,14.0,90,-99.99,,,-99.99,607.000000,,2013-05-12 21:30:00,
2013-05-12 14:33:00,55.0,52.0,30.14,NW,310,11.0,15.0,89,-99.99,,,-99.99,638.000000,,2013-05-12 21:33:00,
2013-05-12 14:42:00,55.0,52.0,30.14,WNW,302,10.0,13.0,89,-99.99,,,-99.99,632.000000,,2013-05-12 21:42:00,
2013-05-12 14:52:00,55.0,52.0,30.14,NW,309,11.0,15.0,89,-99.99,,,-99.99,621.000000,,2013-05-12 21:52:00,
2013-05-12 15:02:00,54.0,51.0,30.14,NW,305,11.0,14.0,90,-99.99,,,-99.99,632.000000,,2013-05-12 22:02:00,
2013-05-12 15:12:00,54.0,51.0,30.13,WNW,301,10.0,14.0,90,-99.99,,,-99.99,607.000000,,2013-05-12 22:12:00,
2013-05-12 15:23:00,54.0,51.0,30.13,WNW,301,10.0,14.0,90,-99.99,,,-99.99,607.000000,,2013-05-12 22:23:00,
2013-05-12 15:42:00,54.0,51.0,30.12,NW,314,10.0,15.0,89,-99.99,,,-99.99,471.000000,,2013-05-12 22:42:00,
2013-05-12 15:52:00,54.0,51.0,30.12,NW,313,10.0,13.0,91,-99.99,,,-99.99,584.000000,,2013-05-12 22:52:00,
2013-05-12 16:02:00,54.0,51.0,30.11,NW,316,10.0,14.0,90,-99.99,,,-99.99,450.000000,,2013-05-12 23:02:00,
2013-05-12 16:12:00,54.0,52.0,30.11,WNW,303,10.0,12.0,91,-99.99,,,-99.99,584.000000,,2013-05-12 23:12:00,
2013-05-12 16:22:00,54.0,51.0,30.10,NW,306,10.0,12.0,90,-99.99,,,-99.99,604.000000,,2013-05-12 23:22:00,
2013-05-12 16:32:00,54.0,51.0,30.10,NW,309,10.0,13.0,90,-99.99,,,-99.99,557.000000,,2013-05-12 23:32:00,
2013-05-12 16:42:00,54.0,51.0,30.10,NW,309,10.0,13.0,90,-99.99,,,-99.99,495.000000,,2013-05-12 23:42:00,
2013-05-12 16:51:00,54.0,52.0,30.10,NW,311,8.0,11.0,91,-99.99,,,-99.99,437.000000,,2013-05-12 23:51:00,
2013-05-12 17:01:00,54.0,52.0,30.09,NW,310,9.0,12.0,91,-99.99,,,-99.99,413.000000,,2013-05-13 00:01:00,
2013-05-12 17:11:00,54.0,52.0,30.09,NW,309,10.0,15.0,91,-99.99,,,-99.99,385.000000,,2013-05-13 00:11:00,
2013-05-12 17:21:00,54.0,52.0,30.09,NW,304,8.0,12.0,92,-99.99,,,-99.99,392.000000,,2013-05-13 00:21:00,
2013-05-12 17:32:00,55.0,52.0,30.09,NW,309,8.0,11.0,91,-99.99,,,-99.99,381.000000,,2013-05-13 00:32:00,
2013-05-12 17:41:00,55.0,52.0,30.09,NW,314,8.0,11.0,90,-99.99,,,-99.99,384.000000,,2013-05-13 00:41:00,
2013-05-12 17:51:00,56.0,53.0,30.08,NW,314,8.0,11.0,90,-99.99,,,-99.99,432.000000,,2013-05-13 00:51:00,
2013-05-12 18:01:00,56.0,53.0,30.08,NW,308,8.0,12.0,89,-99.99,,,-99.99,469.000000,,2013-05-13 01:01:00,
2013-05-12 18:11:00,57.0,53.0,30.08,WNW,301,8.0,12.0,87,-99.99,,,-99.99,439.000000,,2013-05-13 01:11:00,
2013-05-12 18:22:00,57.0,53.0,30.08,WNW,293,8.0,13.0,85,-99.99,,,-99.99,392.000000,,2013-05-13 01:22:00,
2013-05-12 18:31:00,57.0,52.0,30.07,WNW,290,10.0,13.0,84,-99.99,,,-99.99,389.000000,,2013-05-13 01:31:00,
2013-05-12 18:41:00,57.0,52.0,30.07,WNW,291,10.0,14.0,84,-99.99,,,-99.99,355.000000,,2013-05-13 01:41:00,
2013-05-12 18:52:00,57.0,52.0,30.07,WNW,287,10.0,13.0,84,-99.99,,,-99.99,322.000000,,2013-05-13 01:52:00,
2013-05-12 19:01:00,57.0,53.0,30.07,WNW,290,10.0,14.0,85,-99.99,,,-99.99,284.000000,,2013-05-13 02:01:00,
2013-05-12 19:11:00,56.0,52.0,30.06,WNW,289,9.0,13.0,86,-99.99,,,-99.99,253.000000,,2013-05-13 02:11:00,
2013-05-12 19:21:00,56.0,52.0,30.06,WNW,292,9.0,13.0,86,-99.99,,,-99.99,226.000000,,2013-05-13 02:21:00,
2013-05-12 19:31:00,55.0,52.0,30.06,WNW,291,10.0,14.0,88,-99.99,,,-99.99,193.000000,,2013-05-13 02:31:00,
2013-05-12 19:41:00,55.0,52.0,30.06,WNW,292,9.0,12.0,88,-99.99,,,-99.99,158.000000,,2013-05-13 02:41:00,
2013-05-12 19:51:00,54.0,51.0,30.05,WNW,302,9.0,13.0,89,-99.99,,,-99.99,82.000000,,2013-05-13 02:51:00,
2013-05-12 20:01:00,54.0,51.0,30.05,WNW,299,9.0,12.0,91,-99.99,,,-99.99,60.000000,,2013-05-13 03:01:00,
2013-05-12 20:11:00,54.0,52.0,30.04,NW,305,10.0,14.0,92,-99.99,,,-99.99,43.000000,,2013-05-13 03:11:00,
2013-05-12 20:21:00,53.0,51.0,30.04,WNW,300,10.0,13.0,92,-99.99,,,-99.99,25.000000,,2013-05-13 03:21:00,
2013-05-12 20:32:00,53.0,51.0,30.04,WNW,299,10.0,13.0,93,-99.99,,,-99.99,16.000000,,2013-05-13 03:32:00,
2013-05-12 20:42:00,53.0,51.0,30.04,WNW,303,10.0,13.0,93,-99.99,,,-99.99,9.000000,,2013-05-13 03:42:00,
2013-05-12 20:52:00,53.0,51.0,30.04,NW,308,13.0,18.0,94,-99.99,,,-99.99,3.000000,,2013-05-13 03:52:00,
2013-05-12 21:02:00,52.0,50.0,30.04,NW,306,10.0,16.0,94,-99.99,,,-99.99,3.000000,,2013-05-13 04:02:00,
2013-05-12 21:12:00,52.0,51.0,30.04,NW,306,10.0,15.0,94,-99.99,,,-99.99,3.000000,,2013-05-13 04:12:00,
2013-05-12 21:23:00,52.0,51.0,30.04,NW,312,11.0,15.0,95,-99.99,,,-99.99,0.000000,,2013-05-13 04:23:00,
2013-05-12 21:32:00,52.0,51.0,30.04,NW,305,9.0,13.0,95,-99.99,,,-99.99,0.000000,,2013-05-13 04:32:00,
2013-05-12 21:40:00,51.0,50.0,30.04,NW,306,9.0,12.0,96,-99.99,,,-99.99,0.000000,,2013-05-13 04:40:00,
2013-05-12 21:41:00,52.0,51.0,30.04,NW,305,10.0,14.0,95,-99.99,,,-99.99,0.000000,,2013-05-13 04:41:00,
2013-05-12 21:52:00,52.0,51.0,30.04,NW,306,11.0,14.0,96,-99.99,,,-99.99,0.000000,,2013-05-13 04:52:00,
2013-05-12 22:02:00,51.0,50.0,30.04,NW,311,9.0,13.0,96,-99.99,,,-99.99,0.000000,,2013-05-13 05:02:00,
2013-05-12 22:11:00,51.0,50.0,30.04,NW,308,11.0,16.0,96,-99.99,,,-99.99,0.000000,,2013-05-13 05:11:00,
2013-05-12 22:21:00,51.0,50.0,30.04,NW,306,9.0,12.0,96,-99.99,,,-99.99,0.000000,,2013-05-13 05:21:00,
2013-05-12 22:32:00,51.0,50.0,30.04,NW,306,9.0,12.0,96,-99.99,,,-99.99,0.000000,,2013-05-13 05:32:00,
2013-05-12 22:51:00,51.0,50.0,30.05,NW,310,11.0,16.0,96,-99.99,,,-99.99,0.000000,,2013-05-13 05:51:00,
2013-05-12 23:01:00,51.0,50.0,30.05,NW,313,12.0,18.0,96,-99.99,,,-99.99,0.000000,,2013-05-13 06:01:00,
2013-05-12 23:11:00,51.0,50.0,30.04,NW,316,11.0,13.0,96,-99.99,,,-99.99,0.000000,,2013-05-13 06:11:00,
2013-05-12 23:21:00,52.0,51.0,30.04,NW,321,9.0,11.0,96,-99.99,,,-99.99,0.000000,,2013-05-13 06:21:00,
2013-05-12 23:31:00,52.0,51.0,30.04,NW,319,10.0,16.0,96,-99.99,,,-99.99,0.000000,,2013-05-13 06:31:00,
2013-05-12 23:42:00,52.0,51.0,30.04,NW,318,11.0,15.0,96,-99.99,,,-99.99,0.000000,,2013-05-13 06:42:00,
2013-05-12 23:52:00,52.0,51.0,30.04,NW,308,11.0,16.0,96,-99.99,,,-99.99,0.000000,,2013-05-13 06:52:00,